Lorain / Elyria, OH

6:33 AM EDT on September 26, 2017 (GMT -0400)
Lorain County Regional

Weather History for KLPR - March, 2014

Change the Weather History Date:

Wednesday, March 12, 2014

  Actual Average (KCLE) Record (KCLE)
Temperature  
Mean Temperature 29 °F -  
Max Temperature 43 °F 44 °F 75 °F (1990)
Min Temperature 15 °F 28 °F -5 °F (1948)
Degree Days  
Heating Degree Days 36    
Moisture  
Dew Point 24 °F    
Average Humidity 81    
Maximum Humidity 89    
Minimum Humidity 64    
Precipitation  
Precipitation 0.28 in - - ()
Sea Level Pressure  
Sea Level Pressure 29.59 in    
Wind  
Wind Speed 18 mph (NNE)    
Max Wind Speed 31 mph    
Max Gust Speed 47 mph    
Visibility 3 miles    
Events Fog , Rain , Snow    
Averages and records for this station are not official NWS values.
T = Trace of Precipitation, MM = Missing Value Source: NWS Daily Summary

Daily Weather History Graph

Daily Weather History Graph

Search for Another Location

Airport or City:

Trip Planner

Search our weather history database for the weather conditions in past years. The results will help you decide how hot, cold, wet, or windy it might be!

Date:

Astronomy

Mar. 12, 2014 Rise Set
Actual Time 7:45 AM EDT 7:32 PM EDT
Civil Twilight 7:17 AM EDT 7:59 PM EDT
Nautical Twilight 6:45 AM EDT 8:31 PM EDT
Astronomical Twilight 6:13 AM EDT 9:04 PM EDT
Moon 3:59 PM EDT (3/12) 5:18 AM EDT (3/12)
Length of Visible Light 12h 41m
Length of Day
11h 46m
Waxing Gibbous, 85% of the Moon is Illuminated
Mar 12
Waxing Gibbous
Mar 16
Full
Mar 23
Last Quarter
Mar 30
New
Apr 7
First Quarter

Hourly Weather History & Observations

Time (EDT) Temp. Windchill Dew Point Humidity Pressure Visibility Wind Dir Wind Speed Gust Speed Precip Events Conditions
12:53 AM 43.0 °F 36.8 °F 36.0 °F 76% 29.68 in 7.0 mi ENE 11.5 mph - 0.00 in   Overcast
1:53 AM 42.1 °F 35.7 °F 36.0 °F 79% 29.65 in 7.0 mi ENE 11.5 mph - 0.01 in   Partly Cloudy
2:53 AM 42.1 °F 35.2 °F 35.1 °F 76% 29.60 in 8.0 mi ENE 12.7 mph 21.9 mph N/A   Clear
3:40 AM 41.0 °F 33.9 °F 35.1 °F 79% 29.56 in 7.0 mi NE 12.7 mph - N/A   Mostly Cloudy
3:53 AM 39.9 °F 32.1 °F 35.1 °F 83% 29.56 in 5.0 mi NE 13.8 mph 21.9 mph N/A   Haze
4:12 AM 39.0 °F 30.6 °F 35.1 °F 86% 29.54 in 2.5 mi NE 15.0 mph - N/A   Overcast
4:53 AM 37.0 °F 28.5 °F 33.1 °F 86% 29.54 in 2.5 mi NE 13.8 mph - N/A   Overcast
5:35 AM 37.0 °F 28.5 °F 33.1 °F 86% 29.52 in 3.0 mi NE 13.8 mph - 0.00 in Rain Light Rain
5:53 AM 36.0 °F 28.0 °F 32.0 °F 86% 29.52 in 2.5 mi ENE 11.5 mph - 0.01 in Rain Light Rain
6:01 AM 36.0 °F 27.1 °F 32.0 °F 86% 29.49 in 2.5 mi ENE 13.8 mph - 0.01 in Rain Light Rain
6:53 AM 36.0 °F 26.7 °F 32.0 °F 86% 29.48 in 2.5 mi NE 15.0 mph 23.0 mph 0.13 in Rain Rain
7:35 AM 36.0 °F 26.0 °F 32.0 °F 86% 29.43 in 3.0 mi NE 17.3 mph 25.3 mph 0.08 in Rain Light Rain
7:53 AM 35.1 °F 25.5 °F 32.0 °F 89% 29.42 in 3.0 mi NE 15.0 mph 24.2 mph 0.10 in Rain Rain
8:21 AM 35.1 °F 24.8 °F 32.0 °F 89% 29.40 in 2.5 mi NE 17.3 mph 25.3 mph 0.02 in Rain Light Rain
8:30 AM 35.1 °F 25.2 °F 30.9 °F 85% 29.39 in 3.0 mi NE 16.1 mph 26.5 mph 0.02 in Rain Light Rain
8:53 AM 35.1 °F 24.1 °F 30.9 °F 85% 29.40 in 3.0 mi NE 19.6 mph 28.8 mph 0.02 in Snow Light Snow
9:02 AM 35.1 °F 25.2 °F 30.9 °F 85% 29.38 in 2.5 mi NE 16.1 mph 32.2 mph 0.00 in Snow Light Snow
9:17 AM 35.1 °F 23.8 °F 30.9 °F 85% 29.38 in 1.5 mi NE 20.7 mph 32.2 mph 0.00 in Snow Light Snow
9:40 AM 34.0 °F 22.1 °F 30.9 °F 89% 29.39 in 0.8 mi NNE 21.9 mph 35.7 mph 0.00 in Snow Light Snow
9:53 AM 35.1 °F 23.0 °F 30.9 °F 85% 29.43 in 0.8 mi NNE 24.2 mph 33.4 mph 0.00 in Snow Light Snow
10:35 AM 34.0 °F 22.1 °F 30.0 °F 85% 29.43 in 0.2 mi NNE 21.9 mph 34.5 mph 0.00 in Fog , Snow Heavy Snow
10:53 AM 34.0 °F 21.5 °F 30.9 °F 89% 29.42 in 0.2 mi NNE 24.2 mph 35.7 mph 0.00 in Fog Fog
11:33 AM 34.0 °F 21.0 °F 30.0 °F 85% 29.38 in 0.5 mi NNE 26.5 mph 36.8 mph 0.00 in Fog , Snow Snow
11:53 AM 34.0 °F 21.5 °F 30.0 °F 85% 29.37 in 0.5 mi NNE 24.2 mph 35.7 mph 0.00 in Fog , Snow Snow
12:09 PM 34.0 °F 20.8 °F 30.0 °F 85% 29.36 in 1.2 mi NE 27.6 mph 42.6 mph 0.00 in Snow Light Snow
12:26 PM 34.0 °F 21.8 °F 30.0 °F 85% 29.35 in 2.0 mi NE 23.0 mph 42.6 mph 0.00 in Snow Light Snow
12:43 PM 34.0 °F 21.5 °F 28.9 °F 82% 29.38 in 4.0 mi NNE 24.2 mph 35.7 mph 0.01 in Snow Light Snow
12:53 PM 33.1 °F 19.8 °F 28.9 °F 85% 29.42 in 4.0 mi NNE 26.5 mph 43.7 mph 0.01 in Snow Light Snow
1:09 PM 33.1 °F 19.1 °F 28.9 °F 85% 29.42 in 1.8 mi NNE 29.9 mph 39.1 mph 0.00 in Snow Light Snow
1:20 PM 33.1 °F 18.9 °F 28.0 °F 82% 29.43 in 2.5 mi NNE 31.1 mph 43.7 mph 0.00 in Snow Light Snow
1:30 PM 33.1 °F 19.3 °F 28.0 °F 82% 29.43 in 3.0 mi NNE 28.8 mph 38.0 mph 0.00 in Snow Light Snow
1:35 PM 33.1 °F 20.6 °F 28.0 °F 82% 29.43 in 1.8 mi North 23.0 mph 40.3 mph 0.00 in Snow Light Snow
1:45 PM 30.9 °F 16.7 °F 27.0 °F 85% 29.45 in 0.5 mi North 27.6 mph 41.4 mph 0.00 in Fog , Snow Snow
1:53 PM 30.0 °F 16.0 °F 26.1 °F 85% 29.47 in 0.8 mi NNE 25.3 mph 40.3 mph 0.00 in Snow Light Snow
2:19 PM 28.9 °F 16.5 °F 25.0 °F 85% 29.48 in 0.2 mi North 18.4 mph 36.8 mph 0.00 in Fog , Snow Heavy Snow
2:53 PM 28.0 °F 13.6 °F 24.1 °F 85% 29.54 in 0.2 mi North 24.2 mph 47.2 mph 0.00 in Fog Light Freezing Fog
3:53 PM 25.0 °F 7.8 °F 21.0 °F 85% 29.60 in 0.5 mi North 31.1 mph 42.6 mph 0.00 in Fog Light Freezing Fog
4:26 PM 24.1 °F 8.7 °F 19.0 °F 81% 29.63 in 0.8 mi North 23.0 mph 39.1 mph N/A   Haze
4:33 PM 24.1 °F 7.4 °F 18.0 °F 77% 29.63 in 1.0 mi North 27.6 mph 42.6 mph N/A   Haze
4:53 PM 24.1 °F 8.7 °F 18.0 °F 77% 29.69 in 1.0 mi North 23.0 mph 39.1 mph N/A   Haze
5:04 PM 23.0 °F 5.7 °F 17.1 °F 78% 29.68 in 0.8 mi North 28.8 mph 39.1 mph N/A   Haze
5:16 PM 23.0 °F 6.0 °F 17.1 °F 78% 29.70 in 1.0 mi North 27.6 mph 39.1 mph N/A   Haze
5:53 PM 23.0 °F 8.0 °F 17.1 °F 78% 29.76 in 0.5 mi North 20.7 mph 32.2 mph N/A   Haze
6:17 PM 21.9 °F 6.2 °F 16.0 °F 78% 29.76 in 0.2 mi North 21.9 mph 32.2 mph N/A   Haze
6:24 PM 21.0 °F 4.3 °F 16.0 °F 81% 29.77 in 0.2 mi North 24.2 mph 29.9 mph N/A   Haze
6:40 PM 21.0 °F 5.0 °F 15.1 °F 78% 29.79 in 0.5 mi North 21.9 mph 32.2 mph N/A   Haze
6:53 PM 21.0 °F 4.6 °F 15.1 °F 78% 29.83 in 0.8 mi North 23.0 mph 32.2 mph N/A   Haze
7:40 PM 19.9 °F 5.2 °F 14.0 °F 78% 29.84 in 1.8 mi North 17.3 mph 24.2 mph N/A   Haze
7:44 PM 19.9 °F 3.5 °F 12.9 °F 74% 29.84 in 3.0 mi North 21.9 mph 29.9 mph N/A   Haze
7:53 PM 19.0 °F 4.0 °F 12.9 °F 77% 29.88 in 5.0 mi North 17.3 mph 28.8 mph N/A   Haze
8:07 PM 19.0 °F 4.0 °F 10.9 °F 71% 29.86 in 7.0 mi North 17.3 mph 28.8 mph N/A   Overcast
8:18 PM 18.0 °F 1.3 °F 10.9 °F 74% 29.87 in 5.0 mi North 20.7 mph 28.8 mph N/A   Haze
8:28 PM 18.0 °F 1.7 °F 10.0 °F 71% 29.88 in 5.0 mi North 19.6 mph 28.8 mph N/A   Haze
8:53 PM 17.1 °F 0.1 °F 8.1 °F 68% 29.93 in 5.0 mi North 20.7 mph 28.8 mph N/A   Haze
9:53 PM 16.0 °F 0.1 °F 6.1 °F 65% 29.97 in 10.0 mi North 17.3 mph 26.5 mph N/A   Overcast
10:53 PM 15.1 °F -0.6 °F 5.0 °F 64% 29.98 in 9.0 mi North 16.1 mph - N/A   Overcast
11:53 PM 16.0 °F 1.1 °F 6.1 °F 65% 29.98 in 10.0 mi North 15.0 mph 23.0 mph N/A   Overcast